Location: *
(50.9167°S, 179.4000°W)
Time: 21:25:40
(UTC+00:00)

Cosmos 2366 rocket - Pass Details

Date: 03 March 2024
Orbit: 955 x 996 km, 82.9° (Epoch: 16 April)

Event Time Altitude Azimuth Distance (km) Brightness Sun altitude
Exits shadow 14:15:19 55° 277° (W) 1,196 4.1 -26.5°
Maximum altitude 14:15:55 57° 255° (WSW) 1,174 4.2 -26.5°
Drops below altitude 10° 14:22:16 10° 176° (S) 2,803 7.1 -25.9°
Sets 14:24:53 0° 171° (S) 3,759 8.0 -25.6°
